{"data":{"norad_id":64362,"intl_designator":"2025-126U","name":"STARLINK-34335","alt_names":[],"object_type":"PAYLOAD","status":"ACTIVE","operator":null,"country":"US","launch_date":"2025-06-13","launch_site_code":"AFWTR","launch_vehicle":null,"mission":null,"orbit_class":"UNKNOWN","rcs_meters":null,"size_class":null,"mass_kg":null,"dimensions":null,"purposes":["comms"],"wikipedia_slug":null,"has_3d_model":false,"image_url":null,"decayed_at":null,"tle_current":{"epoch":"2026-09-20T09:56:58.312320Z","epoch_age_seconds":141641,"freshness":"FRESH","line1":"1 64362U 25126U   26263.41456380  .00015942  00000+0  55740-3 0  9991","line2":"2 64362  70.0020 261.3374 0004194 272.3493  87.7202 15.29603324 69901","mean_motion":15.29603324,"eccentricity":0.0004194,"inclination_deg":70.002,"raan_deg":261.3374,"arg_perigee_deg":272.3493,"mean_anomaly_deg":87.7202,"bstar":0.0005574,"rev_number":6990,"period_min":94.142054832512,"perigee_km":474.1221722248,"apogee_km":479.87225880478,"semimajor_km":6855.1342155148,"source":"CELESTRAK","updated_at":"2026-09-21T09:00:35.319659Z"}}}